EW7486 Weather Reports


Display with metric or nautical units.
time (UTC)temp
F
wind
direction
speed
MPH
gust
MPH
rain 1hr
in
rain 24hr
in
rain mn
in
humidity
%
barometer
mb
20260505193042 81 237 0.0 3.0 0.00 0.00 0.00 36 1011.8
20260505191539 80 198 0.0 2.0 0.00 0.00 0.00 36 1012.3
20260505190045 79 225 0.0 2.0 0.00 0.00 0.00 40 1012.5
20260505184533 78 183 0.0 2.0 0.00 0.00 0.00 39 1012.7
20260505183041 77 134 0.0 6.0 0.00 0.00 0.00 38 1012.7
20260505181526 77 136 0.0 3.0 0.00 0.00 0.00 40 1013.0
20260505174600 76 224 0.0 4.0 0.00 0.00 0.00 41 1013.3
20260505173044 75 134 0.0 2.0 0.00 0.00 0.00 43 1013.6
20260505171555 75 234 0.0 6.0 0.00 0.00 0.00 42 1013.7
20260505170147 74 121 0.0 2.0 0.00 0.00 0.00 44 1013.8
20260505164634 73 296 0.0 2.0 0.00 0.00 0.00 47 1013.6
20260505163044 71 200 0.0 3.0 0.00 0.00 0.00 47 1013.6
20260505161541 70 293 0.0 4.0 0.00 0.00 0.00 53 1013.9
20260505153029 66 278 0.0 0.0 0.00 0.00 0.00 56 1014.4
20260505151509 65 298 0.0 0.0 0.00 0.00 0.00 58 1014.4
20260505150137 63 187 0.0 0.0 0.00 0.00 0.00 63 1014.6
20260505124502 54 136 0.0 0.0 0.00 0.00 0.00 84 1014.0
20260505123100 53 136 0.0 0.0 0.00 0.00 0.00 84 1014.1
20260505121558 53 136 0.0 0.0 0.00 0.00 0.00 84 1013.8
20260505120105 52 136 0.0 0.0 0.00 0.00 0.00 85 1013.6
20260505114554 52 136 0.0 0.0 0.00 0.00 0.00 85 1013.4
20260505113055 53 136 0.0 0.0 0.00 0.00 0.00 84 1013.2
20260505111549 53 136 0.0 0.0 0.00 0.00 0.00 82 1013.2
20260505101545 54 136 0.0 0.0 0.00 0.00 0.00 76 1012.8
20260505100043 54 136 0.0 0.0 0.00 0.00 0.00 77 1012.9
20260505094542 54 136 0.0 0.0 0.00 0.00 0.00 78 1012.7
20260505093041 54 136 0.0 0.0 0.00 0.00 0.00 78 1012.7
20260505091540 54 136 0.0 0.0 0.00 0.00 0.00 79 1012.7
20260505090041 53 136 0.0 0.0 0.00 0.00 0.00 79 1012.7
20260505084546 53 136 0.0 0.0 0.00 0.00 0.00 81 1012.7
20260505083039 53 136 0.0 2.0 0.00 0.00 0.00 83 1012.7
20260505081537 53 191 0.0 0.0 0.00 0.00 0.00 82 1012.5
20260505080038 54 191 0.0 0.0 0.00 0.00 0.00 83 1012.2
20260505074536 54 191 0.0 0.0 0.00 0.00 0.00 82 1012.2
20260505073040 55 191 0.0 0.0 0.00 0.00 0.00 82 1012.3
20260505071530 55 191 0.0 0.0 0.00 0.00 0.00 82 1012.4
20260505070037 56 191 0.0 0.0 0.00 0.00 0.00 78 1012.4
20260505064524 56 191 0.0 0.0 0.00 0.00 0.00 76 1012.5
20260505063023 57 191 0.0 0.0 0.00 0.00 0.00 76 1012.6
20260505061525 57 191 0.0 0.0 0.00 0.00 0.00 77 1012.7
20260505060019 57 191 0.0 0.0 0.00 0.00 0.00 74 1012.7
20260505054517 58 191 0.0 0.0 0.00 0.00 0.00 74 1012.6
20260505053019 58 191 0.0 0.0 0.00 0.00 0.00 71 1012.7
20260505051519 59 191 0.0 0.0 0.00 0.00 0.00 68 1012.7
20260505041504 61 191 0.0 0.0 0.00 0.00 0.00 68 1012.7
20260505040101 62 191 0.0 0.0 0.00 0.00 0.00 66 1012.7
20260505034600 63 191 0.0 0.0 0.00 0.00 0.00 64 1012.7
20260505033104 64 191 0.0 0.0 0.00 0.00 0.00 56 1012.8
20260505031607 65 191 0.0 0.0 0.00 0.00 0.00 53 1012.7
20260505030052 65 191 0.0 0.0 0.00 0.00 0.00 51 1012.8
20260505024622 66 191 0.0 0.0 0.00 0.00 0.00 50 1012.9
20260505023008 66 191 0.0 0.0 0.00 0.00 0.00 51 1012.9
20260505021534 67 191 0.0 0.0 0.00 0.00 0.00 49 1012.6
20260505020109 68 191 0.0 0.0 0.00 0.00 0.00 49 1012.5
20260505014602 68 191 0.0 0.0 0.00 0.00 0.00 49 1012.4
20260505013121 69 191 0.0 0.0 0.00 0.00 0.00 50 1012.3
20260505011605 69 191 0.0 0.0 0.00 0.00 0.00 48 1012.1
20260505010132 70 191 0.0 0.0 0.00 0.00 0.00 44 1011.9
20260505004506 70 191 0.0 1.0 0.00 0.00 0.00 44 1012.0
20260505003022 71 191 0.0 0.0 0.00 0.00 0.00 47 1011.9
20260505001604 72 191 0.0 0.0 0.00 0.00 0.00 44 1011.8
20260505000134 73 191 0.0 0.0 0.00 0.00 0.00 42 1011.8
20260504234609 73 191 0.0 2.0 0.00 0.00 0.00 41 1011.7
20260504233106 74 195 0.0 2.0 0.00 0.00 0.00 41 1011.6
20260504231548 75 188 0.0 2.0 0.00 0.00 0.00 40 1011.5
20260504230129 75 214 0.0 2.0 0.00 0.00 0.00 39 1011.5
20260504224614 76 156 0.0 3.0 0.00 0.00 0.00 37 1011.4
20260504223152 76 182 0.0 2.0 0.00 0.00 0.00 37 1011.5
20260504221606 77 169 0.0 2.0 0.00 0.00 0.00 36 1011.5
20260504214612 77 151 0.0 2.0 0.00 0.00 0.00 36 1011.5
20260504213104 77 145 0.0 3.0 0.00 0.00 0.00 36 1011.5
20260504211554 77 232 0.0 4.0 0.00 0.00 0.00 33 1011.5
20260504210058 78 91 0.0 5.0 0.00 0.00 0.00 36 1011.5
20260504204555 79 196 0.0 2.0 0.00 0.00 0.00 36 1011.7
20260504203155 79 193 0.0 2.0 0.00 0.00 0.00 34 1011.8
20260504201556 79 229 0.0 2.0 0.00 0.00 0.00 36 1011.8
20260504200056 79 206 0.0 2.0 0.00 0.00 0.00 33 1011.9
20260504194550 78 153 0.0 2.0 0.00 0.00 0.00 33 1012.0